Great Falls, MT

8:32 AM MST on February 08, 2016 (GMT -0700)
Great Falls International

Weather History for KGTF - March, 2013

Change the Weather History Date:

Wednesday, March 13, 2013

  Actual Average Record
Temperature  
Mean Temperature 55 °F 33 °F  
Max Temperature 63 °F 45 °F 69 °F (2003)
Min Temperature 46 °F 22 °F -19 °F (1897)
Degree Days  
Heating Degree Days 10 32  
Month to date heating degree days 385 436  
Since 1 July heating degree days 5198 5941  
Cooling Degree Days 0 0  
Month to date cooling degree days 0 0  
Year to date cooling degree days 0 0  
Growing Degree Days 4 (Base 50)    
Moisture  
Dew Point 30 °F    
Average Humidity 42    
Maximum Humidity 58    
Minimum Humidity 25    
Precipitation  
Precipitation 0.00 in 0.03 in 3.05 in (1899)
Month to date precipitation 0.11 0.32  
Year to date precipitation 1.15 1.30  
Snow  
Snow 0.00 in 0.40 in 7.20 in (1990)
Month to date snowfall 2.0 4.9  
Since 1 July snowfall 57.8 44.9  
Snow Depth 0.00 in    
Sea Level Pressure  
Sea Level Pressure 30.02 in    
Wind  
Wind Speed 22 mph (SW)    
Max Wind Speed 35 mph    
Max Gust Speed 43 mph    
Visibility 10 miles    
Events      
T = Trace of Precipitation, MM = Missing Value Source: NWS Daily Summary

Daily Weather History Graph

Daily Weather History Graph

Search for Another Location

Airport or City:

Trip Planner

Search our weather history database for the weather conditions in past years. The results will help you decide how hot, cold, wet, or windy it might be!

Date:

Astronomy

Mar. 13, 2013 Rise Set
Actual Time 7:41 AM MDT 7:28 PM MDT
Civil Twilight 7:11 AM MDT 7:59 PM MDT
Nautical Twilight 6:35 AM MDT 8:35 PM MDT
Astronomical Twilight 5:59 AM MDT 9:11 PM MDT
Moon 8:12 AM MDT (3/13) 10:02 PM MDT (3/13)
Length of Visible Light 12h 48m
Length of Day
11h 46m
Waxing Crescent, 4% of the Moon is Illuminated
Mar 13
Waxing Crescent
Mar 19
First Quarter
Mar 27
Full
Apr 2
Last Quarter
Apr 10
New

Hourly Weather History & Observations

Time (MDT) Temp. Dew Point Humidity Pressure Visibility Wind Dir Wind Speed Gust Speed Precip Events Conditions
12:53 AM 46.9 °F 32.0 °F 56% 30.03 in 10.0 mi SW 19.6 mph - N/A   Clear
1:53 AM 46.9 °F 30.9 °F 54% 30.03 in 10.0 mi SW 19.6 mph - N/A   Clear
2:53 AM 46.9 °F 32.0 °F 56% 30.04 in 10.0 mi SW 16.1 mph - N/A   Clear
3:53 AM 48.0 °F 32.0 °F 54% 30.00 in 10.0 mi SW 25.3 mph 29.9 mph N/A   Clear
4:53 AM 48.0 °F 32.0 °F 54% 29.97 in 10.0 mi SW 23.0 mph 28.8 mph N/A   Clear
5:53 AM 48.9 °F 30.9 °F 50% 29.98 in 10.0 mi SW 24.2 mph 31.1 mph N/A   Clear
6:53 AM 48.9 °F 30.9 °F 50% 29.98 in 10.0 mi SW 25.3 mph 33.4 mph N/A   Clear
7:53 AM 48.9 °F 30.0 °F 48% 30.00 in 10.0 mi SSW 20.7 mph 31.1 mph N/A   Clear
8:53 AM 50.0 °F 30.0 °F 46% 30.01 in 10.0 mi SW 25.3 mph 34.5 mph N/A   Clear
9:53 AM 52.0 °F 30.9 °F 45% 30.02 in 10.0 mi SSW 23.0 mph 32.2 mph N/A   Clear
10:53 AM 55.0 °F 30.9 °F 40% 30.02 in 10.0 mi SW 29.9 mph 35.7 mph N/A   Clear
11:53 AM 57.9 °F 30.9 °F 36% 30.02 in 10.0 mi SW 31.1 mph 36.8 mph N/A   Clear
12:53 PM 61.0 °F 28.9 °F 30% 30.01 in 10.0 mi SW 24.2 mph 33.4 mph N/A   Clear
1:53 PM 62.1 °F 28.0 °F 28% 30.02 in 10.0 mi SSW 24.2 mph 35.7 mph N/A   Clear
2:53 PM 61.0 °F 28.0 °F 29% 30.00 in 10.0 mi SW 27.6 mph 42.6 mph N/A   Clear
3:53 PM 62.1 °F 27.0 °F 26% 30.00 in 10.0 mi SW 25.3 mph 31.1 mph N/A   Clear
4:53 PM 60.1 °F 28.0 °F 30% 30.01 in 10.0 mi SSW 21.9 mph 27.6 mph N/A   Clear
5:53 PM 57.9 °F 28.9 °F 33% 30.02 in 10.0 mi SW 18.4 mph - N/A   Clear
6:53 PM 55.9 °F 28.9 °F 36% 30.05 in 10.0 mi SW 11.5 mph - N/A   Clear
7:53 PM 53.1 °F 30.0 °F 41% 30.05 in 10.0 mi SSW 16.1 mph - N/A   Clear
8:53 PM 54.0 °F 30.0 °F 40% 30.05 in 10.0 mi SW 18.4 mph - N/A   Clear
9:53 PM 54.0 °F 30.0 °F 40% 30.05 in 10.0 mi SW 21.9 mph 28.8 mph N/A   Clear
10:53 PM 53.1 °F 28.9 °F 40% 30.07 in 10.0 mi SW 18.4 mph - N/A   Clear
11:53 PM 52.0 °F 28.0 °F 40% 30.09 in 10.0 mi SW 13.8 mph - N/A   Clear